Regional Weather Roundup
Issued by NWS Charleston, WV

Home | Current Version | Previous Version | Text Only | Print | Product List | Glossary Off
Versions: 1 2 3 4 5 6 7 8 9 10 11 12 13 14 15 16 17 18 19 20 21 22 23 24 25 26 27 28 29 30 31 32 33 34 35 36 37 38 39 40 41 42 43 44 45

000
ASUS41 KRLX 212210
RWRRLX
West Virginia Regional Weather Roundup
National Weather Service Charleston WV
600 PM EDT TUE OCT 21 2014

Note: "fair" indicates few or no clouds below 12,000 feet with no
significant weather and/or obstructions to visibility.

WVZ003-212300-
Northern Panhandle of West Virginia

CITY           SKY/WX    TMP DP  RH WIND       PRES   REMARKS
WHEELING       CLOUDY    48  42  80 NW12G21   29.97R
$$

WVZ009-212300-
Northwest West Virginia

CITY           SKY/WX    TMP DP  RH WIND       PRES   REMARKS
PARKERSBURG    LGT RAIN  49  47  93 NW8       30.03R
$$

WVZ006-212300-
Western West Virginia

CITY           SKY/WX    TMP DP  RH WIND       PRES   REMARKS
HUNTINGTON     CLOUDY    50  44  80 VRB6      30.05R
$$

WVZ015-212300-
West Central West Virginia

CITY           SKY/WX    TMP DP  RH WIND       PRES   REMARKS
CHARLESTON     LGT RAIN  49  44  83 W6        30.02R
$$

WVZ022-031-212300-
North Central West Virginia

CITY           SKY/WX    TMP DP  RH WIND       PRES   REMARKS
CLARKSBURG     LGT RAIN  50  48  93 W8        29.95R
MORGANTOWN     HVY RAIN  52  46  80 NW8G16    29.94R
$$

WVZ025-035-042-045-212300-
Southern West Virginia

CITY           SKY/WX    TMP DP  RH WIND       PRES   REMARKS
BECKLEY        CLOUDY    45  39  79 NW12      29.99R
LOGAN          CLOUDY    50  41  71 NW8G20    30.03R
BLUEFIELD      CLOUDY    47  39  74 NW6       29.99R
LEWISBURG      CLOUDY    49  40  69 W3G17     29.96S
$$

WVZ047-212300-
Northern Mountains of West Virginia

CITY           SKY/WX    TMP DP  RH WIND       PRES   REMARKS
ELKINS         LGT RAIN  47  46  97 NW8       29.94R
$$

WVZ052-212300-
Eastern Panhandle of West Virginia

CITY           SKY/WX    TMP DP  RH WIND       PRES   REMARKS
MARTINSBURG    LGT RAIN  54  49  83 CALM      29.88R
PETERSBURG     MOCLDY   N/A N/A N/A CALM      29.92R
$$



USA.gov is the U.S. government's official web portal to all federal, state and local government web resources and services.